| time (UTC) | temp F | wind direction | speed MPH | gust MPH | rain 1hr in | rain 24hr in | rain mn in | humidity % | barometer mb |
| 20260510130004 | 46 | 53 | 2.0 | 3.0 | 0.00 | 0.00 | 0.00 | 61 | 1020.3 |
| 20260510125003 | 45 | 11 | 3.0 | 4.0 | 0.00 | 0.00 | 0.00 | 63 | 1020.2 |
| 20260510124004 | 42 | 13 | 1.0 | 4.0 | 0.00 | 0.00 | 0.00 | 67 | 1020.1 |
| 20260510123003 | 42 | 13 | 0.0 | 1.0 | 0.00 | 0.00 | 0.00 | 67 | 1020.0 |
| 20260510122003 | 41 | 13 | 1.0 | 3.0 | 0.00 | 0.00 | 0.00 | 68 | 1019.9 |
| 20260510121020 | 39 | 350 | 0.0 | 0.0 | 0.00 | 0.00 | 0.00 | 71 | 1019.6 |
| 20260510120002 | 39 | 350 | 0.0 | 0.0 | 0.00 | 0.00 | 0.00 | 72 | 1019.5 |
| 20260510115003 | 39 | 350 | 0.0 | 0.0 | 0.00 | 0.00 | 0.00 | 72 | 1019.4 |
| 20260510114019 | 38 | 350 | 0.0 | 0.0 | 0.00 | 0.00 | 0.00 | 71 | 1019.4 |
| 20260510113004 | 38 | 350 | 0.0 | 0.0 | 0.00 | 0.00 | 0.00 | 71 | 1019.2 |
| 20260510112003 | 38 | 350 | 0.0 | 0.0 | 0.00 | 0.00 | 0.00 | 71 | 1019.0 |
| 20260510111003 | 38 | 350 | 0.0 | 0.0 | 0.00 | 0.00 | 0.00 | 70 | 1019.0 |
| 20260510110003 | 39 | 350 | 0.0 | 0.0 | 0.00 | 0.00 | 0.00 | 68 | 1018.9 |
| 20260510105003 | 39 | 350 | 0.0 | 0.0 | 0.00 | 0.00 | 0.00 | 67 | 1018.8 |
| 20260510104004 | 40 | 350 | 0.0 | 0.0 | 0.00 | 0.00 | 0.00 | 66 | 1018.6 |
| 20260510103003 | 39 | 350 | 0.0 | 0.0 | 0.00 | 0.00 | 0.00 | 66 | 1018.7 |
| 20260510102003 | 39 | 350 | 2.0 | 3.0 | 0.00 | 0.00 | 0.00 | 67 | 1018.7 |
| 20260510101020 | 39 | 350 | 0.0 | 0.0 | 0.00 | 0.00 | 0.00 | 67 | 1018.4 |
| 20260510100004 | 39 | 350 | 0.0 | 0.0 | 0.00 | 0.00 | 0.00 | 66 | 1018.2 |
| 20260510095006 | 40 | 350 | 0.0 | 0.0 | 0.00 | 0.00 | 0.00 | 65 | 1018.2 |
| 20260510094004 | 40 | 350 | 0.0 | 0.0 | 0.00 | 0.00 | 0.00 | 64 | 1018.0 |
| 20260510093005 | 40 | 350 | 0.0 | 0.0 | 0.00 | 0.00 | 0.00 | 64 | 1017.9 |
| 20260510092003 | 40 | 350 | 0.0 | 0.0 | 0.00 | 0.02 | 0.00 | 64 | 1017.9 |
| 20260510091004 | 40 | 350 | 0.0 | 1.0 | 0.00 | 0.02 | 0.00 | 64 | 1017.8 |
| 20260510090003 | 41 | 350 | 0.0 | 1.0 | 0.00 | 0.02 | 0.00 | 65 | 1017.8 |
| 20260510085004 | 41 | 350 | 0.0 | 0.0 | 0.00 | 0.02 | 0.00 | 66 | 1017.9 |
| 20260510084004 | 41 | 350 | 0.0 | 0.0 | 0.00 | 0.02 | 0.00 | 66 | 1018.0 |
| 20260510083004 | 42 | 350 | 0.0 | 0.0 | 0.00 | 0.02 | 0.00 | 66 | 1017.9 |
| 20260510082005 | 42 | 350 | 0.0 | 2.0 | 0.00 | 0.02 | 0.00 | 65 | 1017.9 |
| 20260510081004 | 43 | 350 | 0.0 | 0.0 | 0.00 | 0.02 | 0.00 | 61 | 1017.9 |
| 20260510080004 | 43 | 350 | 0.0 | 0.0 | 0.00 | 0.02 | 0.00 | 62 | 1018.0 |
| 20260510075004 | 43 | 350 | 0.0 | 0.0 | 0.00 | 0.02 | 0.00 | 63 | 1017.9 |
| 20260510074003 | 43 | 350 | 0.0 | 1.0 | 0.00 | 0.02 | 0.00 | 62 | 1017.8 |
| 20260510073003 | 43 | 350 | 0.0 | 1.0 | 0.00 | 0.02 | 0.00 | 61 | 1017.7 |
| 20260510072004 | 42 | 350 | 0.0 | 1.0 | 0.00 | 0.02 | 0.00 | 62 | 1017.6 |
| 20260510071004 | 43 | 350 | 0.0 | 0.0 | 0.00 | 0.02 | 0.00 | 60 | 1017.5 |
| 20260510070004 | 43 | 350 | 0.0 | 0.0 | 0.00 | 0.02 | 0.00 | 58 | 1017.4 |
| 20260510065004 | 43 | 350 | 0.0 | 0.0 | 0.00 | 0.02 | 0.00 | 59 | 1017.4 |
| 20260510064004 | 44 | 350 | 0.0 | 0.0 | 0.00 | 0.02 | 0.00 | 59 | 1017.2 |
| 20260510063003 | 44 | 350 | 1.0 | 2.0 | 0.00 | 0.02 | 0.00 | 58 | 1017.1 |
| 20260510062004 | 44 | 350 | 0.0 | 1.0 | 0.00 | 0.02 | 0.00 | 61 | 1017.1 |
| 20260510061004 | 44 | 350 | 0.0 | 0.0 | 0.00 | 0.02 | 0.00 | 61 | 1017.1 |
| 20260510060005 | 44 | 350 | 0.0 | 2.0 | 0.00 | 0.02 | 0.00 | 58 | 1017.1 |
| 20260510055005 | 44 | 350 | 0.0 | 0.0 | 0.00 | 0.02 | 0.00 | 59 | 1017.1 |
| 20260510054004 | 44 | 350 | 0.0 | 0.0 | 0.00 | 0.02 | 0.00 | 60 | 1017.0 |
| 20260510053005 | 45 | 350 | 0.0 | 0.0 | 0.00 | 0.02 | 0.00 | 60 | 1017.0 |
| 20260510052003 | 45 | 350 | 0.0 | 0.0 | 0.00 | 0.02 | 0.00 | 61 | 1016.9 |
| 20260510051005 | 45 | 350 | 0.0 | 0.0 | 0.00 | 0.02 | 0.00 | 61 | 1017.0 |
| 20260510050006 | 45 | 350 | 0.0 | 0.0 | 0.00 | 0.02 | 0.00 | 57 | 1016.9 |
| 20260510045003 | 46 | 350 | 0.0 | 0.0 | 0.00 | 0.02 | 0.02 | 55 | 1016.9 |
| 20260510044020 | 46 | 350 | 0.0 | 0.0 | 0.00 | 0.02 | 0.02 | 54 | 1016.8 |
| 20260510043004 | 46 | 350 | 0.0 | 0.0 | 0.00 | 0.02 | 0.02 | 53 | 1016.9 |
| 20260510042003 | 47 | 350 | 0.0 | 0.0 | 0.00 | 0.02 | 0.02 | 51 | 1016.9 |
| 20260510041004 | 48 | 350 | 0.0 | 0.0 | 0.00 | 0.02 | 0.02 | 48 | 1016.8 |
| 20260510040005 | 48 | 350 | 0.0 | 0.0 | 0.00 | 0.02 | 0.02 | 47 | 1016.7 |
| 20260510035003 | 49 | 350 | 0.0 | 0.0 | 0.00 | 0.02 | 0.02 | 45 | 1016.7 |
| 20260510034020 | 50 | 350 | 0.0 | 0.0 | 0.00 | 0.02 | 0.02 | 44 | 1016.8 |
| 20260510033003 | 50 | 350 | 0.0 | 3.0 | 0.00 | 0.02 | 0.02 | 43 | 1016.7 |
| 20260510032005 | 50 | 350 | 0.0 | 0.0 | 0.00 | 0.02 | 0.02 | 43 | 1016.7 |
| 20260510031003 | 51 | 350 | 0.0 | 1.0 | 0.00 | 0.02 | 0.02 | 42 | 1016.7 |
| 20260510030004 | 51 | 350 | 0.0 | 2.0 | 0.00 | 0.02 | 0.02 | 42 | 1016.5 |
| 20260510025003 | 52 | 355 | 1.0 | 2.0 | 0.00 | 0.02 | 0.02 | 41 | 1016.4 |
| 20260510024003 | 52 | 355 | 0.0 | 2.0 | 0.00 | 0.02 | 0.02 | 41 | 1016.2 |
| 20260510023003 | 53 | 355 | 1.0 | 1.0 | 0.00 | 0.02 | 0.02 | 40 | 1016.1 |
| 20260510022003 | 53 | 355 | 1.0 | 3.0 | 0.00 | 0.02 | 0.02 | 40 | 1015.8 |
| 20260510021003 | 54 | 360 | 2.0 | 2.0 | 0.00 | 0.02 | 0.02 | 39 | 1015.7 |
| 20260510020005 | 54 | 5 | 2.0 | 5.0 | 0.00 | 0.02 | 0.02 | 38 | 1015.4 |
| 20260510015003 | 55 | 5 | 2.0 | 3.0 | 0.00 | 0.02 | 0.02 | 37 | 1015.3 |
| 20260510014004 | 55 | 5 | 2.0 | 5.0 | 0.00 | 0.02 | 0.02 | 37 | 1015.1 |
| 20260510013002 | 56 | 350 | 2.0 | 3.0 | 0.00 | 0.02 | 0.02 | 36 | 1014.9 |
| 20260510012003 | 56 | 18 | 2.0 | 3.0 | 0.00 | 0.02 | 0.02 | 36 | 1014.7 |
| 20260510011003 | 56 | 335 | 4.0 | 8.0 | 0.00 | 0.02 | 0.02 | 35 | 1014.7 |
| 20260510010004 | 57 | 13 | 2.0 | 10.0 | 0.00 | 0.02 | 0.02 | 35 | 1014.6 |
| 20260510005003 | 57 | 347 | 4.0 | 10.0 | 0.00 | 0.02 | 0.02 | 34 | 1014.5 |
| 20260510004020 | 57 | 339 | 5.0 | 6.0 | 0.00 | 0.02 | 0.02 | 34 | 1014.3 |
| 20260510003004 | 58 | 342 | 7.0 | 12.0 | 0.00 | 0.02 | 0.02 | 33 | 1014.1 |
| 20260510002003 | 58 | 354 | 5.0 | 4.0 | 0.00 | 0.02 | 0.02 | 33 | 1014.1 |
| 20260510001004 | 58 | 346 | 4.0 | 7.0 | 0.00 | 0.02 | 0.02 | 34 | 1014.1 |
| 20260510000003 | 59 | 353 | 6.0 | 9.0 | 0.00 | 0.02 | 0.02 | 33 | 1013.9 |
| 20260509235004 | 59 | 351 | 3.0 | 6.0 | 0.00 | 0.02 | 0.02 | 33 | 1013.9 |
| 20260509234003 | 59 | 304 | 3.0 | 4.0 | 0.00 | 0.02 | 0.02 | 34 | 1013.8 |
| 20260509233003 | 59 | 304 | 4.0 | 3.0 | 0.00 | 0.02 | 0.02 | 34 | 1013.7 |
| 20260509232003 | 59 | 321 | 4.0 | 10.0 | 0.00 | 0.02 | 0.02 | 33 | 1013.6 |
| 20260509231003 | 59 | 319 | 5.0 | 11.0 | 0.00 | 0.02 | 0.02 | 33 | 1013.6 |
| 20260509230004 | 60 | 335 | 5.0 | 5.0 | 0.00 | 0.02 | 0.02 | 33 | 1013.5 |
| 20260509225004 | 60 | 4 | 2.0 | 6.0 | 0.00 | 0.02 | 0.02 | 33 | 1013.5 |
| 20260509224005 | 60 | 335 | 5.0 | 7.0 | 0.00 | 0.02 | 0.02 | 32 | 1013.4 |
| 20260509223004 | 60 | 340 | 7.0 | 13.0 | 0.00 | 0.02 | 0.02 | 32 | 1013.3 |
| 20260509222004 | 61 | 341 | 5.0 | 12.0 | 0.00 | 0.02 | 0.02 | 32 | 1013.2 |
| 20260509221019 | 60 | 346 | 6.0 | 10.0 | 0.00 | 0.02 | 0.02 | 33 | 1013.3 |
| 20260509220004 | 60 | 327 | 3.0 | 4.0 | 0.00 | 0.02 | 0.02 | 33 | 1013.2 |
| 20260509215004 | 60 | 343 | 5.0 | 6.0 | 0.00 | 0.02 | 0.02 | 33 | 1013.1 |
| 20260509214005 | 60 | 338 | 6.0 | 11.0 | 0.00 | 0.02 | 0.02 | 33 | 1013.2 |
| 20260509213003 | 59 | 316 | 8.0 | 10.0 | 0.00 | 0.02 | 0.02 | 35 | 1013.1 |
| 20260509212003 | 60 | 350 | 8.0 | 10.0 | 0.00 | 0.02 | 0.02 | 33 | 1013.2 |
| 20260509211003 | 60 | 325 | 8.0 | 13.0 | 0.00 | 0.02 | 0.02 | 33 | 1013.2 |
| 20260509210003 | 60 | 316 | 4.0 | 6.0 | 0.00 | 0.02 | 0.02 | 34 | 1013.1 |
| 20260509205003 | 60 | 8 | 7.0 | 16.0 | 0.00 | 0.02 | 0.02 | 34 | 1013.0 |
| 20260509204004 | 59 | 310 | 4.0 | 8.0 | 0.00 | 0.02 | 0.02 | 33 | 1013.1 |
| 20260509203003 | 59 | 351 | 8.0 | 18.0 | 0.00 | 0.02 | 0.02 | 32 | 1013.1 |
| 20260509202003 | 59 | 336 | 7.0 | 15.0 | 0.00 | 0.02 | 0.02 | 34 | 1013.0 |
| 20260509201004 | 59 | 326 | 7.0 | 10.0 | 0.00 | 0.02 | 0.02 | 34 | 1013.1 |
| 20260509200004 | 59 | 19 | 6.0 | 13.0 | 0.00 | 0.02 | 0.02 | 35 | 1012.9 |
| 20260509195003 | 59 | 357 | 4.0 | 4.0 | 0.00 | 0.02 | 0.02 | 39 | 1013.0 |
| 20260509194004 | 59 | 330 | 7.0 | 14.0 | 0.00 | 0.02 | 0.02 | 35 | 1012.9 |
| 20260509193020 | 59 | 333 | 5.0 | 11.0 | 0.00 | 0.02 | 0.02 | 36 | 1012.9 |
| 20260509192020 | 58 | 342 | 7.0 | 15.0 | 0.00 | 0.02 | 0.02 | 36 | 1012.7 |
| 20260509191004 | 58 | 316 | 7.0 | 11.0 | 0.00 | 0.02 | 0.02 | 36 | 1012.6 |
| 20260509190004 | 58 | 348 | 10.0 | 16.0 | 0.00 | 0.02 | 0.02 | 35 | 1012.5 |
| 20260509185004 | 58 | 358 | 7.0 | 11.0 | 0.00 | 0.02 | 0.02 | 35 | 1012.5 |
| 20260509184004 | 58 | 355 | 5.0 | 9.0 | 0.00 | 0.02 | 0.02 | 36 | 1012.4 |
| 20260509183002 | 58 | 299 | 7.0 | 12.0 | 0.00 | 0.02 | 0.02 | 36 | 1012.5 |
| 20260509182020 | 58 | 357 | 9.0 | 15.0 | 0.00 | 0.02 | 0.02 | 37 | 1012.4 |
| 20260509181019 | 58 | 322 | 8.0 | 11.0 | 0.00 | 0.02 | 0.02 | 38 | 1012.3 |
| 20260509180003 | 58 | 346 | 4.0 | 14.0 | 0.00 | 0.02 | 0.02 | 42 | 1012.1 |
| 20260509175003 | 57 | 340 | 9.0 | 12.0 | 0.00 | 0.02 | 0.02 | 39 | 1012.1 |
| 20260509174004 | 56 | 352 | 8.0 | 15.0 | 0.00 | 0.02 | 0.02 | 40 | 1011.9 |
| 20260509173003 | 57 | 317 | 7.0 | 15.0 | 0.00 | 0.02 | 0.02 | 41 | 1012.0 |
| 20260509172003 | 57 | 345 | 8.0 | 14.0 | 0.00 | 0.02 | 0.02 | 41 | 1011.9 |
| 20260509171004 | 56 | 312 | 9.0 | 13.0 | 0.00 | 0.02 | 0.02 | 40 | 1011.9 |
| 20260509170004 | 56 | 333 | 7.0 | 13.0 | 0.00 | 0.02 | 0.02 | 40 | 1011.8 |
| 20260509165003 | 57 | 4 | 10.0 | 13.0 | 0.00 | 0.02 | 0.02 | 38 | 1011.7 |
| 20260509164005 | 56 | 3 | 8.0 | 12.0 | 0.00 | 0.02 | 0.02 | 40 | 1011.6 |
| 20260509163004 | 56 | 8 | 5.0 | 8.0 | 0.00 | 0.02 | 0.02 | 43 | 1011.4 |
| 20260509162019 | 56 | 336 | 5.0 | 11.0 | 0.00 | 0.02 | 0.02 | 43 | 1011.4 |
| 20260509161004 | 55 | 339 | 7.0 | 11.0 | 0.00 | 0.02 | 0.02 | 44 | 1011.2 |
| 20260509160005 | 56 | 332 | 5.0 | 10.0 | 0.00 | 0.02 | 0.02 | 46 | 1011.0 |
| 20260509155004 | 55 | 10 | 9.0 | 14.0 | 0.00 | 0.02 | 0.02 | 46 | 1011.0 |
| 20260509154003 | 56 | 318 | 8.0 | 15.0 | 0.00 | 0.02 | 0.02 | 48 | 1010.9 |
| 20260509153004 | 55 | 2 | 3.0 | 4.0 | 0.00 | 0.02 | 0.02 | 49 | 1010.8 |
| 20260509152004 | 54 | 356 | 6.0 | 8.0 | 0.00 | 0.02 | 0.02 | 49 | 1010.7 |
| 20260509151005 | 53 | 350 | 7.0 | 13.0 | 0.00 | 0.02 | 0.02 | 50 | 1010.5 |
| 20260509150003 | 53 | 334 | 8.0 | 12.0 | 0.00 | 0.02 | 0.02 | 51 | 1010.4 |
| 20260509145004 | 52 | 342 | 4.0 | 11.0 | 0.00 | 0.02 | 0.02 | 56 | 1010.2 |
| 20260509144004 | 52 | 331 | 5.0 | 15.0 | 0.00 | 0.02 | 0.02 | 58 | 1010.3 |
| 20260509143004 | 52 | 329 | 5.0 | 11.0 | 0.00 | 0.02 | 0.02 | 61 | 1010.2 |
| 20260509142003 | 51 | 3 | 4.0 | 4.0 | 0.00 | 0.02 | 0.02 | 62 | 1010.0 |
| 20260509141004 | 51 | 360 | 3.0 | 8.0 | 0.00 | 0.02 | 0.02 | 66 | 1010.0 |
| 20260509140005 | 50 | 340 | 3.0 | 4.0 | 0.00 | 0.02 | 0.02 | 68 | 1009.9 |
| 20260509135003 | 50 | 25 | 2.0 | 5.0 | 0.00 | 0.02 | 0.02 | 70 | 1009.9 |
| 20260509134003 | 50 | 352 | 6.0 | 13.0 | 0.00 | 0.02 | 0.02 | 69 | 1009.8 |
| 20260509133004 | 49 | 349 | 5.0 | 8.0 | 0.00 | 0.02 | 0.02 | 72 | 1009.6 |
| 20260509132004 | 49 | 332 | 5.0 | 9.0 | 0.00 | 0.02 | 0.02 | 74 | 1009.2 |
| 20260509131004 | 48 | 15 | 6.0 | 12.0 | 0.00 | 0.02 | 0.02 | 78 | 1009.1 |